Location: Monteux
(44.0348°N, 4.9972°E)
Time: 17:24:43
(UTC+00:00)

Helios 1A Rocket - Pass Details

Date: 30 November 2020
Orbit: 564 x 585 km, 98.3° (Epoch: 17 January)

Event Time Altitude Azimuth Distance (km) Brightness Sun altitude
Exits shadow 17:28:41 23° 47° (NE) 1,223 4.1 -14.9°
Drops below altitude 10° 17:31:11 10° 12° (NNE) 1,869 5.3 -15.3°
Sets 17:33:36 0° 359° (N) 2,772 6.3 -15.8°
